Beale AFB, CA

10:07 AM PST on December 14, 2017 (GMT -0800)
Beale Air Force Base

Weather History for KBAB - January, 2014

Change the Weather History Date:

Wednesday, January 29, 2014

  Actual Average Record
Temperature  
Mean Temperature 53 °F -  
Max Temperature 59 °F 54 °F 68 °F (2007)
Min Temperature 47 °F 40 °F 28 °F (2002)
Degree Days  
Heating Degree Days 12    
Growing Degree Days 3 (Base 50)    
Moisture  
Dew Point 55 °F    
Average Humidity 95    
Maximum Humidity 100    
Minimum Humidity 59    
Precipitation  
Precipitation 0.27 in - - ()
Sea Level Pressure  
Sea Level Pressure 30.16 in    
Wind  
Wind Speed 11 mph (SSE)    
Max Wind Speed 20 mph    
Max Gust Speed -    
Visibility 6 miles    
Events Rain    
Averages and records for this station are not official NWS values.
T = Trace of Precipitation, MM = Missing Value Source: NWS Daily Summary

Daily Weather History Graph

Daily Weather History Graph

Search for Another Location

Airport or City:

Trip Planner

Search our weather history database for the weather conditions in past years. The results will help you decide how hot, cold, wet, or windy it might be!

Date:

Astronomy

Jan. 29, 2014 Rise Set
Actual Time 7:14 AM PST 5:23 PM PST
Civil Twilight 6:46 AM PST 5:51 PM PST
Nautical Twilight 6:14 AM PST 6:23 PM PST
Astronomical Twilight 5:42 AM PST 6:55 PM PST
Moon 5:56 AM PST (1/29) 4:29 PM PST (1/29)
Length of Visible Light 11h 05m
Length of Day
10h 08m
Waning Crescent, 2% of the Moon is Illuminated
Jan 29
Waning Crescent
Jan 30
New
Feb 6
First Quarter
Feb 14
Full
Feb 22
Last Quarter

Hourly Weather History & Observations

Time (PST) Temp. Dew Point Humidity Pressure Visibility Wind Dir Wind Speed Gust Speed Precip Events Conditions
12:58 AM 50.0 °F 39.2 °F 66% 30.38 in 10.0 mi East 9.2 mph - N/A   Clear
1:58 AM 50.2 °F 37.9 °F 63% 30.38 in 10.0 mi East 6.9 mph - N/A   Clear
2:58 AM 47.3 °F 41.2 °F 79% 30.39 in 10.0 mi SW 4.6 mph - N/A   Mostly Cloudy
3:58 AM 51.8 °F 40.6 °F 66% 30.38 in 10.0 mi ESE 4.6 mph - N/A   Overcast
4:58 AM 54.0 °F 40.1 °F 59% 30.37 in 10.0 mi ESE 4.6 mph - N/A   Overcast
5:58 AM 55.6 °F 45.5 °F 69% 30.35 in 10.0 mi SE 10.4 mph - N/A   Overcast
6:58 AM 56.7 °F 52.2 °F 85% 30.36 in 10.0 mi South 11.5 mph - N/A   Overcast
7:58 AM 56.3 °F 53.4 °F 90% 30.35 in 10.0 mi SSE 13.8 mph - N/A   Overcast
8:08 AM 57.2 °F 55.4 °F 94% 30.12 in 9.0 mi SSE 16.1 mph - N/A   Overcast
8:13 AM 57.2 °F 55.4 °F 94% 30.11 in 7.0 mi SE 15.0 mph - N/A   Overcast
8:53 AM 57.2 °F 55.4 °F 94% 30.12 in 10.0 mi SSE 17.3 mph - N/A   Overcast
8:58 AM 57.7 °F 55.9 °F 94% 30.35 in 10.0 mi SSE 18.4 mph - N/A   Overcast
9:28 AM 57.2 °F 57.2 °F 100% 30.13 in 6.0 mi SSE 16.1 mph - N/A   Overcast
9:52 AM 57.2 °F 57.2 °F 100% 30.12 in 4.0 mi SE 18.4 mph - N/A   Overcast
9:58 AM 57.7 °F 57.7 °F 100% 30.35 in 4.0 mi SE 17.3 mph - N/A   Overcast
10:33 AM 59.0 °F 59.0 °F 100% 30.12 in 5.0 mi SSE 17.3 mph - N/A   Overcast
10:53 AM 59.0 °F 59.0 °F 100% 30.12 in 6.0 mi SSE 19.6 mph - N/A   Overcast
10:54 AM 59.0 °F 59.0 °F 100% 30.12 in 5.0 mi SSE 18.4 mph - N/A   Light Drizzle
10:58 AM 58.6 °F 58.6 °F 100% 30.35 in 5.0 mi SSE 18.4 mph - 0.00 in   Light Drizzle
11:10 AM 59.0 °F 59.0 °F 100% 30.13 in 4.0 mi SSE 15.0 mph - N/A   Overcast
11:13 AM 59.0 °F 59.0 °F 100% 30.12 in 4.0 mi SSE 17.3 mph - N/A   Light Drizzle
11:18 AM 59.0 °F 59.0 °F 100% 30.12 in 2.5 mi SSE 16.1 mph - N/A   Light Drizzle
11:28 AM 59.0 °F 59.0 °F 100% 30.11 in 1.5 mi SSE 17.3 mph - N/A Rain Light Rain
11:38 AM 59.0 °F 59.0 °F 100% 30.10 in 1.8 mi SSE 16.1 mph - N/A Rain Light Rain
11:43 AM 59.0 °F 59.0 °F 100% 30.10 in 2.0 mi SSE 15.0 mph - N/A   Light Drizzle
11:58 AM 58.5 °F 58.5 °F 100% 30.33 in 2.0 mi SSE 16.1 mph - 0.04 in Rain Light Rain
12:13 PM 59.0 °F 59.0 °F 100% 30.09 in 2.0 mi SSE 15.0 mph - N/A Rain Light Rain
12:18 PM 59.0 °F 59.0 °F 100% 30.08 in 2.0 mi SSE 15.0 mph - N/A Rain Light Rain
12:38 PM 59.0 °F 59.0 °F 100% 30.08 in 3.0 mi SSE 15.0 mph - N/A Rain Light Rain
12:43 PM 59.0 °F 59.0 °F 100% 30.08 in 3.0 mi SSE 15.0 mph - N/A Rain Light Rain
12:48 PM 59.0 °F 59.0 °F 100% 30.08 in 2.5 mi SSE 15.0 mph - N/A Rain Light Rain
12:58 PM 58.6 °F 58.6 °F 100% 30.30 in 1.2 mi SSE 13.8 mph - 0.08 in Rain Light Rain
1:58 PM 58.5 °F 58.5 °F 100% 30.25 in 2.0 mi SE 19.6 mph - 0.10 in Rain Light Rain
2:58 PM 59.0 °F 59.0 °F 100% 30.23 in 6.0 mi SSE 16.1 mph - 0.01 in   Light Drizzle
3:48 PM 59.0 °F 59.0 °F 100% 30.00 in 5.0 mi SSE 12.7 mph - N/A   Overcast
3:58 PM 58.6 °F 58.6 °F 100% 30.23 in 5.0 mi SSE 13.8 mph - 0.02 in   Light Drizzle
4:13 PM 59.0 °F 59.0 °F 100% 29.99 in 4.0 mi SSE 13.8 mph - N/A Rain Light Rain
4:58 PM 58.5 °F 58.5 °F 100% 30.23 in 10.0 mi South 10.4 mph - 0.01 in   Overcast
5:08 PM 59.0 °F 59.0 °F 100% 29.99 in 10.0 mi SSW 10.4 mph - N/A   Overcast
5:23 PM 57.2 °F 57.2 °F 100% 29.99 in 10.0 mi South 10.4 mph - N/A   Overcast
5:43 PM 57.2 °F 57.2 °F 100% 29.99 in 10.0 mi SW 8.1 mph - N/A   Overcast
5:48 PM 57.2 °F 57.2 °F 100% 29.99 in 10.0 mi Variable 5.8 mph - N/A   Light Drizzle
5:53 PM 57.2 °F 57.2 °F 100% 29.99 in 8.0 mi West 8.1 mph - N/A   Light Drizzle
5:58 PM 57.2 °F 57.2 °F 100% 30.23 in 5.0 mi NW 10.4 mph - 0.00 in Rain Light Rain
6:03 PM 57.2 °F 57.2 °F 100% 30.00 in 5.0 mi NNW 9.2 mph - N/A Rain Light Rain
6:08 PM 57.2 °F 57.2 °F 100% 30.00 in 6.0 mi North 4.6 mph - N/A Rain Light Rain
6:26 PM 55.4 °F 55.4 °F 100% 30.00 in 10.0 mi North 5.8 mph - N/A   Overcast
6:41 PM 55.4 °F 55.4 °F 100% 30.00 in 10.0 mi NE 2.3 mph - N/A   Overcast
6:58 PM 55.0 °F 55.0 °F 100% 30.22 in 10.0 mi East 2.3 mph - 0.01 in   Overcast
7:58 PM 52.7 °F 52.7 °F 100% 30.22 in 10.0 mi West 5.8 mph - N/A   Mostly Cloudy
8:58 PM 53.2 °F 53.2 °F 100% 30.21 in 10.0 mi SW 2.3 mph - N/A   Partly Cloudy
9:58 PM 52.3 °F 52.3 °F 100% 30.21 in 10.0 mi North 3.5 mph - N/A   Overcast
10:58 PM 52.0 °F 52.0 °F 100% 30.20 in 10.0 mi Calm Calm - N/A   Overcast
11:43 PM 51.8 °F 51.8 °F 100% 29.97 in 5.0 mi Calm Calm - N/A   Partly Cloudy